This demonstration page uses our WeatherBlox Daily Observations layout. Learn more.

36.17497, -115.13722

Hourly Observations for September 20, 2020

Temp ( °F °C ) Dew Point ( °F °C ) Humidity (%) Winds ( mph kmh ) Pressure ( in mb ) Visibility ( mi km ) Precip ( " mm )
12:53 am 00:53 Clear 81 27.2 35 1.7 19 19 Calm 29.79 1009 10 16.0934 0 0
1:53 am 01:53 Clear 79 26.1 34 1.1 20 20 E 3 6 29.81 1010 10 16.0934 0 0
2:53 am 02:53 Clear 80 26.7 27 -2.8 14 14 W 9 15 29.81 1010 10 16.0934 0 0
3:53 am 03:53 Clear 78 25.6 26 -3.3 15 15 WNW 9 15 29.81 1010 10 16.0934 0 0
4:53 am 04:53 Clear 77 25 31 -0.6 18 18 WNW 7 11 29.83 1010 10 16.0934 0 0
5:53 am 05:53 Clear 74 23.3 31 -0.6 20 20 S 5 7 29.85 1011 10 16.0934 0 0
6:53 am 06:53 Sunny 73 22.8 34 1.1 24 24 Calm 29.88 1012 10 16.0934 0 0
7:53 am 07:53 Sunny 78 25.6 32 0 19 19 NNW 3 6 29.89 1012 10 16.0934 0 0
8:53 am 08:53 Sunny 83 28.3 33 0.6 17 17 NW 5 7 29.91 1013 10 16.0934 0 0
9:53 am 09:53 Sunny 87 30.6 29 -1.7 12 12 Calm 29.92 1013 10 16.0934 0 0
10:53 am 10:53 Sunny 90 32.2 27 -2.8 10 10 SE 3 6 29.91 1013 10 16.0934 0 0
11:53 am 11:53 Sunny 93 33.9 30 -1.1 10 10 SE 3 6 29.89 1012 10 16.0934 0 0
12:53 pm 12:53 Sunny 95 35 31 -0.6 10 10 ESE 9 15 29.86 1011 10 16.0934 0 0
1:53 pm 13:53 Sunny 97 36.1 36 2.2 12 12 Calm 29.83 1010 10 16.0934 0 0
2:53 pm 14:53 Sunny 98 36.7 37 2.8 12 12 SSE 7 11 29.8 1009 10 16.0934 0 0
3:53 pm 15:53 Sunny 100 37.8 38 3.3 12 12 E 8 13 29.78 1009 10 16.0934 0 0
4:53 pm 16:53 Sunny 100 37.8 38 3.3 12 12 E 6 9 29.77 1008 10 16.0934 0 0
5:53 pm 17:53 Sunny 99 37.2 41 5 14 14 E 8 13 29.78 1008 10 16.0934 0 0
6:53 pm 18:53 Clear 96 35.6 41 5 15 15 E 3 6 29.79 1009 10 16.0934 0 0
7:53 pm 19:53 Clear 95 35 37 2.8 13 13 WSW 7 11 29.79 1009 10 16.0934 0 0
8:53 pm 20:53 Clear 92 33.3 38 3.3 15 15 WSW 7 11 29.81 1010 10 16.0934 0 0
9:53 pm 21:53 Clear 90 32.2 38 3.3 16 16 SW 7 11 29.82 1010 10 16.0934 0 0
10:53 pm 22:53 Clear 88 31.1 37 2.8 16 16 SSW 7 11 29.83 1010 10 16.0934 0 0
11:53 pm 23:53 Clear 85 29.4 38 3.3 19 19 Calm 29.84 1010 10 16.0934 0 0

Powered by AerisWeather